contact:dominique.lefevre@mio.osupytheas.fr, maurice.libes@osupytheas.fr, didier.mallarino@osupytheas.fr
Project:EMSO http://www.emso-fr.org/EMSO-France
Depth: 2436.0 m
Title:EMSO Ligure Ouest : Data MII capteur AQUADOPP
Date,Latitude,Longitude,X_East,Y_North,Z_Up,Amplitude_X,Amplitude_Y,Amplitude_Z,Batterie,SoundSpeed,Heading,Pitch,Roll,Pressure,TIS,Speed,Direction
, degrees North, degrees East, m.s-1, m.s-1,m.s-1, 1, 1, 1, Volt, m.s-1, degree, degree, degree, dbar, degree_C, m.s-1, degree
2022-05-31T00:04:03,42.805,6.029,-0.022,-0.006,-0.022,105.0,104.0,102.0,13.3,1505.2,322.4,-0.7,1.8,2470.872,13.28,0.022,254.7
2022-05-31T00:07:03,42.805,6.029,-0.041,0.017,-0.013,104.0,103.0,103.0,13.3,1505.2,325.3,-0.8,1.8,2470.924,13.28,0.044,292.5
2022-05-31T00:10:03,42.805,6.029,-0.035,0.016,-0.007,103.0,103.0,102.0,13.3,1505.2,328.2,-0.8,1.8,2470.923,13.28,0.038,294.6
2022-05-31T00:13:03,42.805,6.029,-0.027,-0.008,-0.026,104.0,104.0,102.0,13.3,1505.2,327.6,-0.7,1.8,2470.884,13.29,0.028,253.5
2022-05-31T00:16:03,42.805,6.029,-0.05,0.011,0.01,105.0,104.0,102.0,13.4,1505.2,324.6,-0.8,1.8,2470.891,13.29,0.051,282.4
2022-05-31T00:19:03,42.805,6.029,-0.009,-0.014,-0.035,104.0,105.0,103.0,13.3,1505.2,325.6,-0.7,1.8,2470.894,13.29,0.016,212.7
2022-05-31T00:22:03,42.805,6.029,-0.026,-0.004,-0.012,106.0,104.0,102.0,13.4,1505.2,327.2,-0.7,1.8,2470.908,13.29,0.026,261.3
2022-05-31T00:25:03,42.805,6.029,-0.025,0.025,-0.017,103.0,103.0,102.0,13.4,1505.2,323.8,-0.8,1.8,2470.873,13.29,0.035,315.0
2022-05-31T00:28:03,42.805,6.029,-0.045,-0.003,-0.014,104.0,104.0,101.0,13.4,1505.2,331.0,-0.7,1.8,2470.877,13.29,0.045,266.2
2022-05-31T00:31:03,42.805,6.029,-0.026,0.023,0.0,104.0,103.0,104.0,13.3,1505.2,333.0,-0.8,1.8,2470.858,13.29,0.034,311.5
2022-05-31T00:34:03,42.805,6.029,-0.031,0.016,-0.026,103.0,104.0,104.0,13.4,1505.2,329.7,-0.7,1.8,2470.859,13.29,0.034,297.3
2022-05-31T00:37:03,42.805,6.029,-0.023,0.008,-0.007,104.0,103.0,103.0,13.4,1505.2,331.6,-0.8,1.8,2470.846,13.29,0.024,289.2
2022-05-31T00:40:03,42.805,6.029,-0.037,-0.015,-0.017,104.0,106.0,103.0,13.3,1505.2,328.0,-0.8,1.8,2470.845,13.29,0.039,247.9
2022-05-31T00:43:03,42.805,6.029,-0.04,0.009,-0.006,106.0,104.0,101.0,13.4,1505.2,323.7,-0.7,1.8,2470.858,13.29,0.041,282.7
2022-05-31T00:46:03,42.805,6.029,-0.037,-0.003,-0.037,105.0,104.0,101.0,13.4,1505.2,328.1,-0.8,1.8,2470.85,13.29,0.037,265.4
2022-05-31T00:49:03,42.805,6.029,-0.006,-0.001,-0.026,104.0,103.0,101.0,13.4,1505.2,327.2,-0.8,1.8,2470.876,13.29,0.006,260.5
2022-05-31T00:52:03,42.805,6.029,-0.026,-0.005,0.002,105.0,102.0,102.0,13.3,1505.2,324.6,-0.7,1.8,2470.819,13.29,0.026,259.1
2022-05-31T00:55:03,42.805,6.029,-0.018,0.008,-0.011,103.0,103.0,102.0,13.4,1505.2,322.1,-0.7,1.8,2470.85,13.29,0.019,294.0
2022-05-31T00:58:03,42.805,6.029,-0.029,0.009,-0.009,105.0,104.0,102.0,13.4,1505.2,328.1,-0.7,1.9,2470.837,13.29,0.03,287.2
2022-05-31T01:04:03,42.805,6.029,-0.018,0.001,0.0,104.0,105.0,102.0,13.4,1505.2,325.6,-0.8,1.8,2470.891,13.28,0.018,273.2
2022-05-31T01:07:03,42.805,6.029,-0.036,0.0,-0.015,104.0,104.0,102.0,13.4,1505.2,327.0,-0.8,1.8,2470.903,13.28,0.036,270.0
2022-05-31T01:10:03,42.805,6.029,0.003,-0.011,-0.046,103.0,104.0,101.0,13.4,1505.2,324.7,-0.8,1.8,2470.894,13.29,0.011,164.7
2022-05-31T01:13:03,42.805,6.029,0.019,0.004,0.018,103.0,103.0,102.0,13.3,1505.2,330.9,-0.8,1.8,2470.855,13.29,0.019,78.1
2022-05-31T01:16:03,42.805,6.029,-0.027,0.002,-0.029,104.0,102.0,101.0,13.4,1505.2,324.5,-0.8,1.8,2470.862,13.29,0.027,274.2
2022-05-31T01:19:03,42.805,6.029,-0.044,-0.005,-0.028,104.0,104.0,101.0,13.4,1505.2,327.1,-0.7,1.8,2470.848,13.29,0.044,263.5
2022-05-31T01:22:03,42.805,6.029,-0.033,-0.01,-0.025,104.0,102.0,102.0,13.4,1505.2,329.9,-0.8,1.8,2470.822,13.29,0.034,253.1
2022-05-31T01:25:03,42.805,6.029,-0.014,-0.012,0.01,104.0,102.0,103.0,13.4,1505.2,327.5,-0.8,1.8,2470.842,13.29,0.018,229.4
2022-05-31T01:28:03,42.805,6.029,-0.031,0.003,-0.005,104.0,104.0,102.0,13.4,1505.2,325.9,-0.8,1.8,2470.871,13.29,0.031,275.5
2022-05-31T01:31:03,42.805,6.029,-0.028,-0.005,-0.024,103.0,103.0,102.0,13.4,1505.2,327.0,-0.7,1.8,2470.826,13.29,0.028,259.9
2022-05-31T01:34:03,42.805,6.029,-0.023,0.001,-0.023,105.0,103.0,102.0,13.4,1505.2,329.0,-0.7,1.8,2470.821,13.29,0.023,272.5
2022-05-31T01:37:03,42.805,6.029,-0.026,-0.008,-0.003,104.0,102.0,102.0,13.3,1505.2,323.8,-0.8,1.8,2470.829,13.29,0.027,252.9
2022-05-31T01:40:03,42.805,6.029,-0.036,-0.009,-0.022,104.0,104.0,101.0,13.4,1505.2,326.4,-0.8,1.8,2470.867,13.29,0.037,256.0
2022-05-31T01:43:03,42.805,6.029,-0.016,0.002,0.007,103.0,104.0,100.0,13.3,1505.2,324.9,-0.7,1.8,2470.817,13.29,0.016,277.1
2022-05-31T01:46:03,42.805,6.029,-0.02,0.021,-0.002,106.0,103.0,101.0,13.3,1505.2,327.3,-0.8,1.9,2470.839,13.29,0.028,316.4
2022-05-31T01:49:03,42.805,6.029,-0.029,0.003,-0.03,103.0,104.0,101.0,13.4,1505.2,331.0,-0.8,1.8,2470.826,13.29,0.029,275.9
2022-05-31T01:52:03,42.805,6.029,-0.019,0.01,-0.022,105.0,103.0,101.0,13.4,1505.2,324.6,-0.8,1.8,2470.836,13.29,0.021,297.8
2022-05-31T01:55:03,42.805,6.029,-0.032,0.011,-0.003,103.0,103.0,103.0,13.3,1505.2,321.6,-0.8,1.8,2470.854,13.29,0.033,289.0
2022-05-31T01:58:03,42.805,6.029,-0.014,-0.006,0.006,104.0,104.0,101.0,13.4,1505.2,319.8,-0.8,1.8,2470.829,13.29,0.015,246.8
2022-05-31T02:04:03,42.805,6.029,-0.015,-0.003,-0.034,103.0,104.0,101.0,13.4,1505.2,322.0,-0.7,1.8,2470.895,13.28,0.015,258.7
2022-05-31T02:07:03,42.805,6.029,-0.016,0.0,0.018,105.0,104.0,101.0,13.4,1505.2,323.4,-0.8,1.8,2470.876,13.28,0.016,270.0
2022-05-31T02:10:03,42.805,6.029,-0.018,-0.021,-0.018,104.0,103.0,101.0,13.3,1505.2,321.4,-0.7,1.8,2470.872,13.29,0.027,220.6
2022-05-31T02:13:03,42.805,6.029,-0.036,-0.012,-0.023,104.0,103.0,102.0,13.4,1505.2,325.6,-0.8,1.8,2470.851,13.29,0.037,251.6
2022-05-31T02:16:03,42.805,6.029,-0.045,0.019,0.011,104.0,103.0,101.0,13.3,1505.2,328.6,-0.8,1.8,2470.829,13.29,0.048,292.9
2022-05-31T02:19:03,42.805,6.029,-0.023,0.0,-0.014,104.0,102.0,103.0,13.3,1505.2,331.9,-0.8,1.8,2470.831,13.29,0.023,270.0
2022-05-31T02:22:03,42.805,6.029,-0.016,-0.005,-0.026,104.0,103.0,100.0,13.4,1505.2,329.7,-0.8,1.8,2470.844,13.29,0.016,252.6
2022-05-31T02:25:03,42.805,6.029,-0.016,0.017,0.042,103.0,103.0,102.0,13.3,1505.2,329.6,-0.7,1.8,2470.851,13.29,0.023,316.7
2022-05-31T02:28:03,42.805,6.029,0.0,0.002,-0.012,105.0,104.0,102.0,13.3,1505.2,324.5,-0.8,1.8,2470.805,13.29,0.002,0.0
2022-05-31T02:31:03,42.805,6.029,-0.006,0.002,0.001,103.0,103.0,103.0,13.4,1505.2,325.9,-0.7,1.8,2470.829,13.29,0.006,288.4
2022-05-31T02:34:03,42.805,6.029,-0.046,-0.002,-0.006,103.0,102.0,102.0,13.4,1505.2,328.2,-0.8,1.8,2470.806,13.29,0.046,267.5
2022-05-31T02:37:03,42.805,6.029,-0.04,-0.011,-0.041,104.0,104.0,101.0,13.3,1505.2,329.8,-0.8,1.8,2470.845,13.29,0.041,254.6
2022-05-31T02:40:03,42.805,6.029,-0.026,-0.003,-0.002,104.0,102.0,101.0,13.4,1505.2,325.1,-0.8,1.8,2470.778,13.29,0.026,263.4
2022-05-31T02:43:03,42.805,6.029,-0.031,0.007,-0.029,103.0,104.0,101.0,13.3,1505.2,329.4,-0.7,1.8,2470.82,13.29,0.031,282.7
2022-05-31T02:46:03,42.805,6.029,-0.03,0.01,-0.021,105.0,104.0,103.0,13.3,1505.2,330.7,-0.7,1.8,2470.817,13.29,0.031,288.4
2022-05-31T02:49:03,42.805,6.029,-0.023,0.026,0.03,103.0,104.0,102.0,13.3,1505.2,331.9,-0.8,1.8,2470.789,13.29,0.034,318.5
2022-05-31T02:52:03,42.805,6.029,-0.041,0.022,-0.003,102.0,102.0,101.0,13.4,1505.2,329.1,-0.7,1.8,2470.814,13.29,0.046,298.2
2022-05-31T02:55:03,42.805,6.029,-0.053,0.019,0.001,104.0,103.0,102.0,13.4,1505.2,324.2,-0.8,1.8,2470.809,13.29,0.056,289.7
2022-05-31T02:58:03,42.805,6.029,-0.011,-0.012,-0.019,104.0,103.0,101.0,13.4,1505.2,323.1,-0.8,1.8,2470.851,13.29,0.016,222.5
2022-05-31T03:04:03,42.805,6.029,-0.031,-0.004,-0.004,103.0,103.0,102.0,13.4,1505.2,330.5,-0.8,1.8,2470.85,13.28,0.031,262.7
2022-05-31T03:07:03,42.805,6.029,-0.033,0.013,0.007,103.0,103.0,102.0,13.4,1505.2,326.7,-0.8,1.8,2470.874,13.28,0.035,291.5
2022-05-31T03:10:03,42.805,6.029,-0.035,0.001,-0.03,103.0,102.0,102.0,13.4,1505.2,323.6,-0.7,1.8,2470.84,13.29,0.035,271.6
2022-05-31T03:13:03,42.805,6.029,-0.028,0.013,0.002,104.0,102.0,101.0,13.3,1505.2,329.3,-0.8,1.8,2470.848,13.29,0.03,294.9
2022-05-31T03:16:03,42.805,6.029,-0.027,0.007,-0.006,103.0,103.0,102.0,13.3,1505.2,322.6,-0.8,1.9,2470.816,13.29,0.027,284.5
2022-05-31T03:19:03,42.805,6.029,-0.029,-0.014,-0.039,103.0,103.0,100.0,13.3,1505.2,322.3,-0.7,1.8,2470.83,13.29,0.032,244.2
2022-05-31T03:22:03,42.805,6.029,-0.027,-0.013,-0.031,104.0,103.0,102.0,13.4,1505.2,330.3,-0.7,1.8,2470.836,13.29,0.029,244.3
2022-05-31T03:25:03,42.805,6.029,-0.049,-0.01,-0.007,105.0,102.0,101.0,13.3,1505.2,328.7,-0.8,1.8,2470.846,13.29,0.05,258.5
2022-05-31T03:28:03,42.805,6.029,-0.041,0.007,-0.012,104.0,104.0,102.0,13.3,1505.2,321.8,-0.8,1.8,2470.814,13.29,0.041,279.7
2022-05-31T03:31:03,42.805,6.029,-0.032,0.013,-0.017,103.0,104.0,103.0,13.4,1505.2,332.1,-0.7,1.8,2470.846,13.29,0.034,292.1
2022-05-31T03:34:03,42.805,6.029,-0.022,-0.001,0.026,103.0,104.0,101.0,13.4,1505.2,322.8,-0.7,1.8,2470.811,13.29,0.022,267.4
2022-05-31T03:37:03,42.805,6.029,-0.025,0.0,-0.011,102.0,103.0,102.0,13.4,1505.2,333.2,-0.8,1.8,2470.845,13.29,0.025,270.0
2022-05-31T03:40:03,42.805,6.029,-0.037,-0.004,-0.012,103.0,103.0,101.0,13.4,1505.2,321.1,-0.7,1.8,2470.856,13.29,0.037,263.8
2022-05-31T03:43:03,42.805,6.029,-0.029,0.007,-0.007,102.0,104.0,103.0,13.3,1505.2,328.0,-0.7,1.8,2470.836,13.29,0.029,283.6
2022-05-31T03:46:03,42.805,6.029,-0.028,0.019,-0.007,104.0,104.0,102.0,13.3,1505.2,323.7,-0.8,1.8,2470.833,13.29,0.033,304.2
2022-05-31T03:49:03,42.805,6.029,-0.014,0.003,-0.042,103.0,103.0,100.0,13.3,1505.2,331.6,-0.8,1.8,2470.811,13.29,0.014,282.1
2022-05-31T03:52:03,42.805,6.029,-0.057,0.011,-0.039,103.0,103.0,101.0,13.3,1505.2,332.1,-0.7,1.8,2470.851,13.29,0.058,280.9
2022-05-31T03:55:03,42.805,6.029,-0.035,0.018,-0.014,104.0,103.0,102.0,13.4,1505.2,331.9,-0.8,1.8,2470.837,13.29,0.039,297.2
2022-05-31T03:58:03,42.805,6.029,-0.031,0.012,-0.026,104.0,103.0,101.0,13.4,1505.2,325.6,-0.7,1.8,2470.813,13.29,0.033,291.2
2022-05-31T04:04:03,42.805,6.029,-0.048,-0.006,-0.032,103.0,103.0,102.0,13.3,1505.2,323.7,-0.8,1.8,2470.856,13.28,0.048,262.9
2022-05-31T04:07:03,42.805,6.029,-0.048,0.009,-0.015,106.0,103.0,103.0,13.4,1505.2,328.0,-0.8,1.8,2470.834,13.28,0.048,280.6
2022-05-31T04:10:03,42.805,6.029,-0.037,-0.007,-0.01,103.0,103.0,102.0,13.4,1505.2,325.9,-0.8,1.8,2470.864,13.28,0.037,259.3
2022-05-31T04:13:03,42.805,6.029,-0.024,0.015,-0.027,103.0,103.0,102.0,13.4,1505.2,328.3,-0.8,1.8,2470.897,13.29,0.028,302.0
2022-05-31T04:16:03,42.805,6.029,-0.03,0.005,-0.038,104.0,105.0,101.0,13.4,1505.2,329.7,-0.8,1.8,2470.85,13.29,0.03,279.5
2022-05-31T04:19:03,42.805,6.029,-0.032,0.016,0.002,104.0,103.0,101.0,13.3,1505.2,331.9,-0.8,1.8,2470.851,13.29,0.035,296.6
2022-05-31T04:22:03,42.805,6.029,-0.018,0.006,-0.01,104.0,107.0,105.0,13.4,1505.2,331.6,-0.8,1.8,2470.856,13.29,0.018,288.4
2022-05-31T04:25:03,42.805,6.029,-0.021,0.003,-0.016,103.0,104.0,102.0,13.4,1505.2,328.7,-0.7,1.8,2470.832,13.29,0.021,278.1
2022-05-31T04:28:03,42.805,6.029,-0.028,0.022,-0.022,101.0,104.0,103.0,13.3,1505.2,332.6,-0.8,1.8,2470.853,13.29,0.035,308.2
2022-05-31T04:31:03,42.805,6.029,-0.005,-0.021,-0.02,102.0,104.0,102.0,13.4,1505.2,328.7,-0.7,1.8,2470.859,13.29,0.021,193.4
2022-05-31T04:34:03,42.805,6.029,-0.004,0.019,-0.003,103.0,104.0,102.0,13.4,1505.2,328.5,-0.7,1.9,2470.843,13.29,0.019,348.1
2022-05-31T04:37:03,42.805,6.029,-0.008,0.012,0.013,104.0,102.0,103.0,13.4,1505.2,329.5,-0.7,1.8,2470.87,13.29,0.014,326.3
2022-05-31T04:40:03,42.805,6.029,-0.028,-0.033,-0.024,105.0,103.0,100.0,13.4,1505.2,324.4,-0.7,1.8,2470.87,13.29,0.043,220.3
2022-05-31T04:43:03,42.805,6.029,-0.05,0.013,-0.012,103.0,104.0,101.0,13.4,1505.2,324.4,-0.8,1.8,2470.873,13.29,0.051,284.6
2022-05-31T04:46:03,42.805,6.029,-0.02,0.017,0.008,103.0,103.0,101.0,13.4,1505.2,331.2,-0.8,1.8,2470.886,13.29,0.026,310.4
2022-05-31T04:49:03,42.805,6.029,-0.024,0.016,-0.026,103.0,103.0,102.0,13.4,1505.2,333.2,-0.7,1.8,2470.874,13.29,0.028,303.7
2022-05-31T04:52:03,42.805,6.029,-0.023,0.01,0.032,103.0,103.0,103.0,13.3,1505.2,328.7,-0.7,1.8,2470.884,13.29,0.025,293.5
2022-05-31T04:55:03,42.805,6.029,-0.047,0.011,-0.003,104.0,102.0,100.0,13.3,1505.2,320.7,-0.8,1.8,2470.885,13.29,0.048,283.2
2022-05-31T04:58:03,42.805,6.029,-0.025,0.0,0.007,104.0,102.0,103.0,13.4,1505.2,324.7,-0.7,1.8,2470.904,13.29,0.025,270.0
2022-05-31T05:04:03,42.805,6.029,-0.016,0.021,0.001,104.0,102.0,101.0,13.3,1505.2,332.8,-0.7,1.8,2470.94,13.28,0.026,322.7
2022-05-31T05:07:03,42.805,6.029,-0.047,0.017,-0.027,103.0,103.0,102.0,13.4,1505.2,330.4,-0.8,1.8,2470.969,13.28,0.049,289.9
2022-05-31T05:10:03,42.805,6.029,-0.025,0.0,0.043,103.0,103.0,101.0,13.4,1505.2,321.6,-0.8,1.8,2470.885,13.28,0.025,270.0
2022-05-31T05:13:03,42.805,6.029,-0.03,-0.01,-0.002,103.0,102.0,101.0,13.4,1505.2,323.0,-0.8,1.8,2470.877,13.29,0.031,251.6
2022-05-31T05:16:03,42.805,6.029,-0.021,0.007,0.025,104.0,102.0,102.0,13.4,1505.2,328.7,-0.8,1.8,2470.887,13.28,0.022,288.4
2022-05-31T05:19:03,42.805,6.029,-0.021,0.003,-0.008,102.0,102.0,101.0,13.4,1505.2,327.9,-0.8,1.9,2470.916,13.29,0.021,278.1
2022-05-31T05:22:03,42.805,6.029,-0.046,0.006,-0.012,102.0,103.0,102.0,13.4,1505.2,326.5,-0.7,1.9,2470.916,13.29,0.046,277.4
2022-05-31T05:25:03,42.805,6.029,-0.038,-0.004,-0.045,103.0,102.0,102.0,13.4,1505.2,332.1,-0.8,1.8,2470.885,13.29,0.038,264.0
2022-05-31T05:28:03,42.805,6.029,-0.032,0.014,-0.001,104.0,103.0,101.0,13.3,1505.2,331.5,-0.7,1.8,2470.87,13.29,0.034,293.6
2022-05-31T05:31:03,42.805,6.029,-0.025,0.009,0.011,102.0,104.0,101.0,13.4,1505.2,328.0,-0.7,1.8,2470.868,13.29,0.026,289.8
2022-05-31T05:34:03,42.805,6.029,-0.046,0.011,-0.035,102.0,102.0,102.0,13.4,1505.2,324.6,-0.8,1.8,2470.885,13.29,0.047,283.4
2022-05-31T05:37:03,42.805,6.029,-0.03,-0.005,-0.024,102.0,103.0,101.0,13.3,1505.2,327.6,-0.7,1.8,2470.899,13.29,0.03,260.5
2022-05-31T05:40:03,42.805,6.029,-0.04,0.011,-0.001,104.0,102.0,101.0,13.4,1505.2,331.1,-0.8,1.8,2470.901,13.29,0.041,285.4
2022-05-31T05:43:03,42.805,6.029,-0.036,-0.006,-0.014,102.0,102.0,102.0,13.3,1505.2,329.4,-0.7,1.8,2470.915,13.29,0.036,260.5
2022-05-31T05:46:03,42.805,6.029,-0.035,0.005,-0.018,104.0,104.0,101.0,13.4,1505.2,321.0,-0.7,1.8,2470.889,13.29,0.035,278.1
2022-05-31T05:49:03,42.805,6.029,-0.033,0.023,0.006,103.0,103.0,101.0,13.3,1505.2,328.2,-0.8,1.8,2470.901,13.29,0.04,304.9
2022-05-31T05:52:03,42.805,6.029,-0.028,-0.007,-0.012,104.0,103.0,101.0,13.3,1505.2,322.2,-0.7,1.8,2470.911,13.29,0.028,256.0
2022-05-31T05:55:03,42.805,6.029,-0.021,0.001,0.0,102.0,103.0,102.0,13.4,1505.2,325.6,-0.8,1.8,2470.913,13.29,0.021,272.7
2022-05-31T05:58:03,42.805,6.029,-0.035,0.002,0.024,105.0,101.0,100.0,13.4,1505.2,329.9,-0.7,1.8,2470.899,13.29,0.035,273.3
2022-05-31T06:01:03,42.805,6.029,-0.036,-0.003,0.001,102.0,103.0,101.0,13.4,1505.2,320.4,-0.8,1.8,2470.92,13.29,0.036,265.2
2022-05-31T06:04:03,42.805,6.029,-0.027,0.02,-0.027,105.0,103.0,101.0,13.3,1505.2,324.0,-0.8,1.8,2470.9,13.29,0.033,306.5
2022-05-31T06:07:03,42.805,6.029,-0.019,0.006,0.006,103.0,104.0,101.0,13.4,1505.2,331.6,-0.8,1.8,2470.939,13.29,0.019,287.5
2022-05-31T06:10:03,42.805,6.029,-0.031,0.007,-0.021,102.0,103.0,102.0,13.4,1505.2,325.9,-0.7,1.8,2470.915,13.29,0.031,282.7
2022-05-31T06:13:03,42.805,6.029,-0.031,-0.003,-0.007,103.0,102.0,100.0,13.3,1505.2,326.9,-0.8,1.8,2470.92,13.29,0.031,264.5
2022-05-31T06:16:03,42.805,6.029,-0.017,0.007,-0.004,104.0,102.0,102.0,13.4,1505.2,333.0,-0.8,1.9,2470.923,13.29,0.018,292.4
2022-05-31T06:19:03,42.805,6.029,-0.029,-0.012,-0.013,103.0,104.0,102.0,13.4,1505.2,328.1,-0.8,1.8,2470.943,13.29,0.031,247.5
2022-05-31T06:22:03,42.805,6.029,-0.016,0.012,0.005,104.0,104.0,100.0,13.4,1505.2,326.5,-0.8,1.8,2470.902,13.29,0.02,306.9
2022-05-31T06:25:03,42.805,6.029,-0.025,0.007,-0.011,103.0,104.0,102.0,13.3,1505.2,329.8,-0.8,1.8,2470.909,13.29,0.025,285.6
2022-05-31T06:28:03,42.805,6.029,-0.048,0.004,-0.028,104.0,105.0,101.0,13.4,1505.2,322.2,-0.7,1.8,2470.909,13.29,0.048,274.8
2022-05-31T06:31:03,42.805,6.029,-0.013,0.005,0.025,105.0,104.0,101.0,13.4,1505.2,327.6,-0.8,1.8,2470.941,13.29,0.013,291.0
2022-05-31T06:34:03,42.805,6.029,-0.02,0.0,-0.016,102.0,103.0,102.0,13.4,1505.2,328.7,-0.8,1.8,2470.931,13.29,0.02,270.0
2022-05-31T06:37:03,42.805,6.029,-0.043,0.012,-0.017,104.0,104.0,101.0,13.4,1505.2,325.0,-0.7,1.8,2470.926,13.29,0.044,285.6
2022-05-31T06:40:03,42.805,6.029,-0.052,0.015,0.0,103.0,103.0,101.0,13.3,1505.2,325.4,-0.7,1.8,2470.964,13.29,0.054,286.1
2022-05-31T06:43:03,42.805,6.029,-0.024,-0.016,-0.015,103.0,104.0,101.0,13.4,1505.2,329.5,-0.8,1.8,2470.957,13.29,0.028,236.3
2022-05-31T06:46:03,42.805,6.029,-0.026,-0.005,-0.008,103.0,102.0,102.0,13.4,1505.2,327.2,-0.8,1.8,2470.925,13.29,0.026,259.1
2022-05-31T06:49:03,42.805,6.029,-0.044,0.002,0.018,102.0,102.0,102.0,13.4,1505.2,321.6,-0.7,1.8,2470.938,13.29,0.044,272.6
2022-05-31T06:52:03,42.805,6.029,-0.012,-0.009,-0.042,103.0,104.0,101.0,13.3,1505.2,323.4,-0.8,1.8,2470.975,13.29,0.015,233.1
2022-05-31T06:55:03,42.805,6.029,-0.024,0.009,-0.005,104.0,103.0,102.0,13.3,1505.2,333.4,-0.7,1.8,2470.933,13.29,0.025,290.6
2022-05-31T06:58:03,42.805,6.029,-0.021,-0.004,-0.007,103.0,104.0,101.0,13.4,1505.2,320.4,-0.8,1.8,2470.909,13.29,0.021,259.2
2022-05-31T07:04:03,42.805,6.029,-0.033,0.003,-0.03,103.0,102.0,101.0,13.4,1505.2,331.5,-0.8,1.8,2470.97,13.28,0.033,275.2
2022-05-31T07:07:03,42.805,6.029,-0.031,-0.009,-0.004,103.0,101.0,101.0,13.4,1505.2,325.3,-0.8,1.8,2470.984,13.28,0.032,253.8
2022-05-31T07:10:03,42.805,6.029,-0.018,0.003,0.042,103.0,103.0,102.0,13.4,1505.2,331.7,-0.8,1.8,2470.991,13.28,0.018,279.5
2022-05-31T07:13:03,42.805,6.029,-0.033,0.004,0.006,103.0,103.0,102.0,13.4,1505.2,323.4,-0.8,1.8,2470.98,13.29,0.033,276.9
2022-05-31T07:16:03,42.805,6.029,-0.02,-0.011,-0.032,102.0,102.0,102.0,13.4,1505.2,327.5,-0.8,1.8,2470.984,13.29,0.022,241.2
2022-05-31T07:19:03,42.805,6.029,-0.037,-0.003,0.0,103.0,102.0,101.0,13.4,1505.2,320.7,-0.8,1.8,2470.936,13.29,0.037,265.4
2022-05-31T07:22:03,42.805,6.029,-0.005,0.02,-0.001,102.0,103.0,102.0,13.4,1505.2,329.2,-0.8,1.8,2470.957,13.29,0.02,346.0
2022-05-31T07:25:03,42.805,6.029,-0.028,0.015,-0.047,105.0,104.0,101.0,13.3,1505.2,329.4,-0.8,1.8,2470.97,13.29,0.031,298.2
2022-05-31T07:28:03,42.805,6.029,-0.05,0.005,-0.004,103.0,102.0,100.0,13.3,1505.2,325.4,-0.7,1.8,2470.945,13.29,0.05,275.7
2022-05-31T07:31:03,42.805,6.029,-0.048,0.007,-0.011,104.0,103.0,102.0,13.3,1505.2,324.8,-0.8,1.8,2470.911,13.29,0.048,278.3
2022-05-31T07:34:03,42.805,6.029,-0.019,-0.001,-0.036,101.0,102.0,102.0,13.4,1505.2,329.0,-0.7,1.8,2470.971,13.29,0.019,267.0
2022-05-31T07:37:03,42.805,6.029,-0.029,-0.015,-0.025,104.0,102.0,102.0,13.4,1505.2,324.4,-0.8,1.8,2470.945,13.29,0.032,242.6
2022-05-31T07:40:03,42.805,6.029,-0.02,-0.004,0.025,102.0,102.0,101.0,13.4,1505.2,327.1,-0.8,1.8,2470.953,13.29,0.02,258.7
2022-05-31T07:43:03,42.805,6.029,-0.044,-0.011,-0.034,102.0,102.0,101.0,13.4,1505.2,321.6,-0.8,1.8,2470.927,13.29,0.045,256.0
2022-05-31T07:46:03,42.805,6.029,-0.038,0.007,0.001,103.0,105.0,101.0,13.4,1505.2,329.5,-0.8,1.8,2470.939,13.29,0.038,280.4
2022-05-31T07:49:03,42.805,6.029,-0.027,0.024,0.007,104.0,104.0,100.0,13.4,1505.2,327.0,-0.8,1.8,2470.954,13.29,0.036,311.6
2022-05-31T07:52:03,42.805,6.029,-0.033,-0.009,-0.031,103.0,103.0,101.0,13.4,1505.2,320.8,-0.8,1.8,2470.92,13.29,0.034,254.7
2022-05-31T07:55:03,42.805,6.029,-0.03,-0.011,-0.006,103.0,104.0,101.0,13.4,1505.2,326.4,-0.7,1.8,2470.927,13.29,0.031,249.9
2022-05-31T07:58:03,42.805,6.029,-0.031,0.001,-0.012,103.0,103.0,102.0,13.4,1505.2,323.0,-0.8,1.8,2470.902,13.29,0.031,271.8
2022-05-31T08:04:03,42.805,6.029,-0.02,0.012,-0.008,104.0,104.0,102.0,13.3,1505.2,328.8,-0.7,1.9,2470.97,13.28,0.023,301.0
2022-05-31T08:07:03,42.805,6.029,-0.038,-0.017,-0.027,105.0,101.0,102.0,13.4,1505.2,323.0,-0.7,1.8,2470.964,13.28,0.041,245.9
2022-05-31T08:10:03,42.805,6.029,-0.018,-0.001,0.0,103.0,103.0,102.0,13.3,1505.2,319.8,-0.8,1.8,2470.935,13.28,0.018,266.8
2022-05-31T08:13:03,42.805,6.029,-0.031,0.005,-0.035,102.0,103.0,101.0,13.4,1505.2,325.9,-0.7,1.8,2470.98,13.28,0.031,279.2
2022-05-31T08:16:03,42.805,6.029,-0.025,0.006,0.006,103.0,104.0,102.0,13.3,1505.2,324.3,-0.7,1.8,2470.937,13.28,0.025,283.5
2022-05-31T08:19:03,42.805,6.029,-0.04,-0.004,-0.031,103.0,102.0,102.0,13.4,1505.2,324.6,-0.8,1.8,2470.951,13.29,0.04,264.3
2022-05-31T08:22:03,42.805,6.029,-0.013,0.013,-0.028,102.0,103.0,101.0,13.4,1505.2,323.3,-0.7,1.9,2470.965,13.29,0.018,315.0
2022-05-31T08:25:03,42.805,6.029,-0.04,0.003,-0.026,104.0,102.0,101.0,13.4,1505.2,328.0,-0.8,1.8,2470.922,13.29,0.04,274.3
2022-05-31T08:28:03,42.805,6.029,-0.007,0.003,0.022,103.0,103.0,100.0,13.4,1505.2,327.3,-0.7,1.8,2470.903,13.29,0.007,293.2
2022-05-31T08:31:03,42.805,6.029,-0.038,0.019,-0.015,102.0,103.0,101.0,13.4,1505.2,329.4,-0.8,1.8,2470.914,13.29,0.042,296.6
2022-05-31T08:34:03,42.805,6.029,-0.04,0.005,0.011,101.0,102.0,102.0,13.3,1505.2,324.6,-0.7,1.8,2470.929,13.29,0.04,277.1
2022-05-31T08:37:03,42.805,6.029,-0.048,-0.001,-0.017,102.0,103.0,101.0,13.4,1505.2,328.4,-0.7,1.8,2470.924,13.29,0.048,268.8
2022-05-31T08:40:03,42.805,6.029,-0.036,0.012,-0.007,103.0,102.0,102.0,13.4,1505.2,331.9,-0.8,1.8,2470.929,13.29,0.037,288.4
2022-05-31T08:43:03,42.805,6.029,-0.031,0.004,-0.001,103.0,102.0,101.0,13.3,1505.2,325.2,-0.8,1.8,2470.939,13.29,0.031,277.3
2022-05-31T08:46:03,42.805,6.029,-0.009,0.017,0.027,103.0,101.0,101.0,13.3,1505.2,332.3,-0.8,1.8,2470.901,13.29,0.019,332.1
2022-05-31T08:49:03,42.805,6.029,-0.032,0.002,0.0,103.0,103.0,102.0,13.3,1505.2,325.2,-0.8,1.8,2470.895,13.29,0.032,273.6
2022-05-31T08:52:03,42.805,6.029,-0.009,-0.015,-0.005,103.0,104.0,101.0,13.4,1505.2,326.1,-0.7,1.8,2470.909,13.29,0.017,211.0
2022-05-31T08:55:03,42.805,6.029,-0.054,-0.001,-0.028,104.0,104.0,101.0,13.3,1505.2,332.1,-0.8,1.9,2470.913,13.29,0.054,268.9
2022-05-31T08:58:03,42.805,6.029,-0.031,0.002,0.001,102.0,103.0,102.0,13.3,1505.2,328.3,-0.7,1.8,2470.909,13.29,0.031,273.7
2022-05-31T09:04:03,42.805,6.029,-0.007,0.01,0.03,104.0,104.0,101.0,13.4,1505.2,324.8,-0.8,1.8,2470.977,13.28,0.012,325.0
2022-05-31T09:07:03,42.805,6.029,-0.031,0.005,-0.017,104.0,103.0,102.0,13.4,1505.2,329.2,-0.8,1.8,2470.96,13.28,0.031,279.2
2022-05-31T09:10:03,42.805,6.029,-0.032,-0.013,-0.003,103.0,104.0,103.0,13.4,1505.2,331.5,-0.8,1.8,2470.925,13.28,0.034,247.9
2022-05-31T09:13:03,42.805,6.029,-0.032,0.004,-0.033,104.0,102.0,101.0,13.3,1505.2,330.8,-0.8,1.8,2470.974,13.29,0.032,277.1
2022-05-31T09:16:03,42.805,6.029,-0.039,-0.003,-0.023,103.0,102.0,102.0,13.4,1505.2,331.9,-0.7,1.8,2470.921,13.29,0.039,265.6
2022-05-31T09:19:03,42.805,6.029,-0.035,0.0,-0.017,103.0,105.0,101.0,13.4,1505.2,320.4,-0.8,1.8,2470.956,13.29,0.035,270.0
2022-05-31T09:22:03,42.805,6.029,-0.025,-0.004,-0.024,101.0,104.0,101.0,13.4,1505.2,324.4,-0.8,1.8,2470.926,13.29,0.025,260.9
2022-05-31T09:25:03,42.805,6.029,-0.021,0.0,-0.025,101.0,103.0,101.0,13.4,1505.2,326.0,-0.8,1.8,2470.935,13.29,0.021,270.0
2022-05-31T09:28:03,42.805,6.029,-0.03,0.006,-0.011,104.0,101.0,101.0,13.4,1505.2,329.2,-0.8,1.8,2470.904,13.29,0.03,281.3
2022-05-31T09:31:03,42.805,6.029,-0.027,0.002,-0.042,103.0,104.0,101.0,13.4,1505.2,331.8,-0.8,1.8,2470.898,13.29,0.027,274.2
2022-05-31T09:34:03,42.805,6.029,-0.041,-0.013,-0.026,103.0,102.0,101.0,13.4,1505.2,328.5,-0.8,1.8,2470.914,13.29,0.043,252.4
2022-05-31T09:37:03,42.805,6.029,-0.051,0.013,0.017,103.0,102.0,100.0,13.3,1505.2,323.9,-0.8,1.8,2470.884,13.29,0.052,284.3
2022-05-31T09:40:03,42.805,6.029,-0.027,-0.01,-0.001,102.0,102.0,101.0,13.4,1505.2,320.8,-0.7,1.8,2470.899,13.29,0.028,249.7
2022-05-31T09:43:03,42.805,6.029,-0.042,0.027,-0.004,101.0,103.0,102.0,13.3,1505.2,326.3,-0.8,1.8,2470.886,13.29,0.049,302.7
2022-05-31T09:46:03,42.805,6.029,-0.002,0.002,0.001,102.0,101.0,101.0,13.3,1505.2,332.7,-0.7,1.9,2470.867,13.29,0.002,315.0
2022-05-31T09:49:03,42.805,6.029,-0.023,0.002,-0.026,103.0,104.0,102.0,13.3,1505.2,329.3,-0.8,1.8,2470.857,13.29,0.023,275.0